User: anonymous   Login
Location: Iesi
(43.5167°N, 13.2333°E)
Time: 09:11:22
(UTC+00:00)
Language:

COSMOS 2406 - Orbit

View from above orbital plane
View from above orbital plane
View from above satellite
View from above satellite

Ground track
Ground track

The orbit data is extracted from the following two-line orbital elements,

1 28352U 04021A   20293.74050305 -.00000357 +00000-0 -17024-3 0  9991
2 28352 071.0018 096.0143 0012524 057.9449 302.2886 14.11683920843092
Epoch (UTC): 19 October 2020 17:46:19
Eccentricity: 0.0012524
inclination: 71.0018°
perigee height: 844 km
apogee height: 862 km
right ascension of ascending node: 96.0143°
argument of perigee: 57.9449°
revolutions per day: 14.11683920
mean anomaly at epoch: 302.2886°
orbit number at epoch: 84309

The dashed part of the orbit path shows where the satellite is in the earth's shadow,  

DLR